DAFP EDDH-EDDH

Flight info

Callsign DAFP
Flight time 0h 31m
Altitude
Route
Aircraft BA28

Departure

Time 2026-04-23 07:37
Airport Hamburg Helmut Schmidt Airport (EDDH)

Arrival

Time 2026-04-23 08:08
Airport Hamburg Helmut Schmidt Airport (EDDH)
Time Latitude Longitude Altitude Speed Heading
2026-04-23 07:25 53.62400 9.99320 45 ft 0 kts 357°
2026-04-23 07:32 53.62403 9.99306 45 ft 6 kts 271°
2026-04-23 07:32 53.62460 9.99221 45 ft 20 kts
2026-04-23 07:33 53.62585 9.99156 45 ft 25 kts 310°
2026-04-23 07:33 53.62766 9.98997 45 ft 28 kts 329°
2026-04-23 07:33 53.62915 9.98994 45 ft 24 kts 50°
2026-04-23 07:33 53.63043 9.99261 45 ft 20 kts 48°
2026-04-23 07:34 53.63076 9.99249 45 ft 10 kts 290°
2026-04-23 07:34 53.63090 9.99181 45 ft 0 kts 275°
2026-04-23 07:35 53.63092 9.99088 46 ft 15 kts 271°
2026-04-23 07:35 53.63083 9.98914 45 ft 15 kts 231°
2026-04-23 07:36 53.62944 9.98633 44 ft 56 kts 237°
2026-04-23 07:36 53.62632 9.98010 174 ft 80 kts 237°
2026-04-23 07:36 53.62226 9.97192 286 ft 98 kts 236°
2026-04-23 07:36 53.61777 9.96294 485 ft 101 kts 236°
2026-04-23 07:37 53.61343 9.95370 729 ft 98 kts 240°
2026-04-23 07:37 53.61180 9.94378 1019 ft 88 kts 283°
2026-04-23 07:37 53.61609 9.93635 1154 ft 98 kts 324°
2026-04-23 07:37 53.62247 9.93826 1376 ft 116 kts 35°
2026-04-23 07:38 53.62816 9.95040 1287 ft 143 kts 47°
2026-04-23 07:38 53.63389 9.96462 1283 ft 152 kts 50°
2026-04-23 07:38 53.63964 9.98000 1295 ft 155 kts 53°
2026-04-23 07:38 53.64504 9.99508 1482 ft 147 kts 51°
2026-04-23 07:39 53.65040 10.00941 1683 ft 144 kts 48°
2026-04-23 07:39 53.65414 10.02366 1616 ft 145 kts 94°
2026-04-23 07:39 53.64602 10.02912 1012 ft 129 kts 229°
2026-04-23 07:39 53.64289 10.01717 676 ft 109 kts 257°
2026-04-23 07:40 53.63928 10.00633 246 ft 103 kts 237°
2026-04-23 07:40 53.63517 9.99800 69 ft 81 kts 242°
2026-04-23 07:40 53.63198 9.99135 67 ft 69 kts 237°
2026-04-23 07:40 53.62863 9.98467 201 ft 78 kts 241°
2026-04-23 07:41 53.62502 9.97754 408 ft 84 kts 240°
2026-04-23 07:41 53.62098 9.96927 432 ft 96 kts 243°
2026-04-23 07:41 53.61705 9.96002 475 ft 100 kts 242°
2026-04-23 07:41 53.61325 9.95044 590 ft 98 kts 246°
2026-04-23 07:42 53.60870 9.94283 925 ft 101 kts 205°
2026-04-23 07:42 53.60164 9.94704 1084 ft 124 kts 139°
2026-04-23 07:42 53.59539 9.95776 1236 ft 129 kts 139°
2026-04-23 07:42 53.58992 9.96928 1482 ft 127 kts 110°
2026-04-23 07:43 53.59047 9.98430 1531 ft 126 kts 57°
2026-04-23 07:43 53.59525 9.99661 1633 ft 125 kts 43°
2026-04-23 07:43 53.60104 10.00787 1600 ft 131 kts 37°
2026-04-23 07:43 53.60789 10.01855 1518 ft 136 kts 30°
2026-04-23 07:44 53.61555 10.02740 1538 ft 130 kts 24°
2026-04-23 07:44 53.62258 10.03586 1752 ft 122 kts 29°
2026-04-23 07:44 53.62852 10.04483 2082 ft 110 kts 32°
2026-04-23 07:44 53.63349 10.05422 2334 ft 108 kts 37°
2026-04-23 07:45 53.63814 10.06476 2468 ft 114 kts 41°
2026-04-23 07:45 53.64345 10.07315 2667 ft 95 kts 12°
2026-04-23 07:45 53.65015 10.07277 2413 ft 105 kts 328°
2026-04-23 07:45 53.65474 10.06408 2245 ft 97 kts 299°
2026-04-23 07:46 53.65513 10.05227 1719 ft 114 kts 256°
2026-04-23 07:46 53.65244 10.04032 1334 ft 104 kts 259°
2026-04-23 07:46 53.64972 10.02937 957 ft 99 kts 251°
2026-04-23 07:46 53.64604 10.02020 609 ft 91 kts 243°
2026-04-23 07:47 53.64216 10.01228 391 ft 87 kts 243°
2026-04-23 07:47 53.63838 10.00447 188 ft 83 kts 239°
2026-04-23 07:47 53.63499 9.99759 86 ft 72 kts 242°
2026-04-23 07:47 53.63195 9.99153 48 ft 63 kts 243°
2026-04-23 07:48 53.62918 9.98581 70 ft 69 kts 240°
2026-04-23 07:48 53.62595 9.97945 276 ft 75 kts 238°
2026-04-23 07:48 53.62222 9.97205 434 ft 89 kts 238°
2026-04-23 07:48 53.61829 9.96365 686 ft 93 kts 237°
2026-04-23 07:49 53.61385 9.95489 738 ft 109 kts 238°
2026-04-23 07:49 53.60924 9.94484 997 ft 93 kts 243°
2026-04-23 07:49 53.60380 9.93922 1276 ft 114 kts 180°
2026-04-23 07:49 53.59602 9.94749 1278 ft 148 kts 145°
2026-04-23 07:50 53.58810 9.95930 1362 ft 156 kts 131°
2026-04-23 07:50 53.58578 9.97601 1521 ft 151 kts 74°
2026-04-23 07:50 53.59060 9.99207 1377 ft 158 kts 46°
2026-04-23 07:50 53.59760 10.00620 1386 ft 154 kts 40°
2026-04-23 07:51 53.60484 10.01929 1352 ft 156 kts 40°
2026-04-23 07:51 53.61259 10.03254 1246 ft 158 kts 36°
2026-04-23 07:51 53.62079 10.04371 1347 ft 149 kts 29°
2026-04-23 07:51 53.62850 10.05331 1566 ft 115 kts 21°
2026-04-23 07:52 53.63474 10.05235 1596 ft 95 kts 319°
2026-04-23 07:52 53.63975 10.04462 1415 ft 97 kts 313°
2026-04-23 07:52 53.64435 10.03631 1225 ft 95 kts 307°
2026-04-23 07:52 53.64795 10.02766 1044 ft 82 kts 294°
2026-04-23 07:53 53.64547 10.01943 755 ft 94 kts 239°
2026-04-23 07:53 53.64166 10.01090 519 ft 91 kts 237°
2026-04-23 07:53 53.63739 10.00247 164 ft 97 kts 238°
2026-04-23 07:53 53.63351 9.99456 59 ft 81 kts 237°
2026-04-23 07:54 53.63032 9.98807 50 ft 63 kts 239°
2026-04-23 07:54 53.62715 9.98189 99 ft 76 kts 238°
2026-04-23 07:54 53.62365 9.97509 166 ft 80 kts 242°
2026-04-23 07:54 53.62012 9.96773 273 ft 79 kts 236°
2026-04-23 07:55 53.61657 9.96127 482 ft 72 kts 218°
2026-04-23 07:55 53.61122 9.96026 649 ft 88 kts 189°
2026-04-23 07:55 53.60494 9.96389 803 ft 100 kts 170°
2026-04-23 07:55 53.59843 9.96572 952 ft 92 kts 188°
2026-04-23 07:56 53.59198 9.96594 1035 ft 96 kts 192°
2026-04-23 07:56 53.58486 9.96493 1140 ft 116 kts 197°
2026-04-23 07:56 53.57581 9.96236 1015 ft 142 kts 198°
2026-04-23 07:56 53.56577 9.96175 1121 ft 150 kts 171°
2026-04-23 07:57 53.55598 9.96911 1164 ft 160 kts 158°
2026-04-23 07:57 53.54697 9.98021 1187 ft 163 kts 121°
2026-04-23 07:57 53.54717 9.99862 1203 ft 160 kts 81°
2026-04-23 07:57 53.54688 10.01771 1196 ft 165 kts 88°
2026-04-23 07:58 53.54745 10.03676 1271 ft 160 kts 79°
2026-04-23 07:58 53.55331 10.04967 1396 ft 135 kts 13°
2026-04-23 07:58 53.56210 10.04865 1463 ft 127 kts 344°
2026-04-23 07:58 53.57072 10.04615 1623 ft 123 kts 353°
2026-04-23 07:59 53.57738 10.05435 1945 ft 140 kts 65°
2026-04-23 07:59 53.57361 10.06951 1980 ft 163 kts 152°
2026-04-23 07:59 53.56338 10.06737 1848 ft 153 kts 229°
2026-04-23 07:59 53.55925 10.05227 1714 ft 142 kts 275°
2026-04-23 08:00 53.56202 10.03690 1608 ft 137 kts 304°
2026-04-23 08:00 53.57002 10.02995 1670 ft 135 kts 351°
2026-04-23 08:00 53.57945 10.03081 1703 ft 135 kts 358°
2026-04-23 08:00 53.58874 10.03238 1784 ft 135 kts 358°
2026-04-23 08:01 53.59713 10.03427 2040 ft 112 kts
2026-04-23 08:01 53.60458 10.03919 1942 ft 131 kts 33°
2026-04-23 08:01 53.60771 10.05363 2067 ft 139 kts 94°
2026-04-23 08:01 53.60055 10.06364 1903 ft 144 kts 189°
2026-04-23 08:02 53.59653 10.05349 1735 ft 115 kts 302°
2026-04-23 08:02 53.60393 10.05450 1635 ft 137 kts 40°
2026-04-23 08:02 53.60879 10.06837 1602 ft 134 kts 50°
2026-04-23 08:02 53.61384 10.08112 1663 ft 130 kts 48°
2026-04-23 08:03 53.61817 10.09440 1676 ft 129 kts 51°
2026-04-23 08:03 53.62318 10.10618 1719 ft 123 kts 40°
2026-04-23 08:03 53.62890 10.11718 1708 ft 125 kts 38°
2026-04-23 08:03 53.63499 10.12575 1875 ft 99 kts
2026-04-23 08:04 53.64088 10.12153 1802 ft 106 kts 319°
2026-04-23 08:04 53.64659 10.11288 1658 ft 108 kts 314°
2026-04-23 08:04 53.65106 10.10378 1741 ft 87 kts 289°
2026-04-23 08:04 53.64940 10.09331 1739 ft 102 kts 257°
2026-04-23 08:05 53.64812 10.08182 1592 ft 100 kts 284°
2026-04-23 08:05 53.64986 10.07177 1519 ft 79 kts 295°
2026-04-23 08:05 53.65202 10.06367 1424 ft 76 kts 300°
2026-04-23 08:05 53.65467 10.05547 1244 ft 79 kts 298°
2026-04-23 08:06 53.65634 10.04683 1161 ft 78 kts 282°
2026-04-23 08:06 53.65499 10.03839 1134 ft 81 kts 243°
2026-04-23 08:06 53.65122 10.03040 895 ft 91 kts 241°
2026-04-23 08:06 53.64723 10.02233 715 ft 89 kts 238°
2026-04-23 08:07 53.64330 10.01454 493 ft 84 kts 244°
2026-04-23 08:07 53.63969 10.00720 280 ft 80 kts 243°
2026-04-23 08:07 53.63613 9.99980 136 ft 81 kts 238°
2026-04-23 08:07 53.63267 9.99285 58 ft 71 kts 239°
2026-04-23 08:08 53.62981 9.98708 45 ft 59 kts 238°
2026-04-23 08:08 53.62775 9.98295 45 ft 27 kts 230°
2026-04-23 08:08 53.62649 9.98034 44 ft 34 kts 227°
2026-04-23 08:08 53.62470 9.97786 42 ft 25 kts 167°
2026-04-23 08:09 53.62374 9.98103 45 ft 55 kts 123°
2026-04-23 08:09 53.62212 9.98915 56 ft 83 kts 71°